DW8852 Weather Reports


time (UTC)temp
F
wind
direction
speed
knots
gust
knots
rain 1hr
in
rain 24hr
in
rain mn
in
humidity
%
barometer
mb
20260507064550 38 312 0.9 2.6 0.00 0.00 0.00 64 1006.1
20260507063048 39 312 1.7 4.3 0.00 0.00 0.00 61 1006.2
20260507061544 40 312 1.7 3.5 0.00 0.00 0.00 59 1006.3
20260507060041 40 312 0.0 1.7 0.00 0.00 0.00 57 1006.5
20260507054537 41 312 0.0 0.0 0.00 0.00 0.00 54 1006.4
20260507053105 41 312 0.0 0.9 0.00 0.00 0.00 54 1006.5
20260507051542 41 312 0.0 0.0 0.00 0.00 0.00 54 1006.5
20260507050037 41 312 0.0 0.9 0.00 0.00 0.00 53 1006.6
20260507044532 41 312 0.0 0.0 0.00 0.00 0.00 54 1006.7
20260507043035 41 312 0.0 0.9 0.00 0.00 0.00 53 1006.8
20260507041532 41 312 0.0 0.9 0.00 0.00 0.00 52 1006.9
20260507040031 41 312 0.0 0.0 0.00 0.00 0.00 54 1006.9
20260507034536 41 312 0.0 0.0 0.00 0.00 0.00 54 1007.0
20260507033039 41 312 0.0 0.0 0.00 0.00 0.00 52 1007.0
20260507031530 41 312 0.0 0.0 0.00 0.00 0.00 52 1007.1
20260507030030 41 312 0.0 0.0 0.00 0.00 0.00 53 1007.2
20260507024533 41 312 0.0 0.0 0.00 0.00 0.00 52 1007.3
20260507023034 41 312 0.0 1.7 0.00 0.00 0.00 52 1007.2
20260507021528 41 312 0.0 3.5 0.00 0.00 0.00 51 1007.3
20260507020028 41 312 0.0 1.7 0.00 0.00 0.00 51 1007.2
20260507014527 42 312 0.0 3.5 0.00 0.00 0.00 50 1007.1
20260507013027 42 315 0.9 4.3 0.00 0.00 0.00 49 1007.1
20260507011533 43 316 3.5 7.8 0.00 0.00 0.00 47 1007.3
20260507010027 44 309 0.9 4.3 0.00 0.00 0.00 46 1007.2
20260507004535 45 323 2.6 7.8 0.00 0.00 0.00 45 1007.3
20260507003025 45 333 3.5 6.1 0.00 0.00 0.00 45 1007.2
20260507001524 45 360 5.2 8.7 0.00 0.00 0.00 46 1007.3
20260507000023 44 355 4.3 8.7 0.00 0.00 0.00 47 1007.3
20260506234523 44 263 4.3 16.5 0.00 0.00 0.00 47 1007.5
20260506233023 44 304 2.6 7.0 0.00 0.00 0.00 47 1007.5
20260506231522 44 355 4.3 11.3 0.00 0.00 0.00 47 1007.6
20260506230021 44 312 4.3 9.6 0.00 0.00 0.00 47 1007.5
20260506224521 45 290 5.2 9.6 0.00 0.00 0.00 47 1007.5
20260506223020 44 279 5.2 10.4 0.00 0.00 0.00 47 1007.5
20260506221520 45 346 4.3 9.6 0.00 0.00 0.00 47 1007.6
20260506220030 44 45 4.3 10.4 0.00 0.00 0.00 47 1007.7
20260506214517 44 344 4.3 8.7 0.00 0.00 0.00 47 1007.7
20260506213016 44 278 4.3 13.0 0.00 0.00 0.00 48 1007.9
20260506211516 44 355 3.5 7.8 0.00 0.00 0.00 49 1008.0
20260506210016 44 47 3.5 11.3 0.00 0.00 0.00 50 1008.1
20260506204512 43 311 3.5 13.0 0.00 0.00 0.00 51 1008.4
20260506203019 43 297 4.3 10.4 0.00 0.00 0.00 51 1008.3
20260506201509 42 355 4.3 11.3 0.00 0.00 0.00 53 1008.5
20260506200007 42 340 4.3 8.7 0.00 0.00 0.00 53 1008.5
20260506194507 42 259 3.5 7.8 0.00 0.00 0.00 53 1008.6
20260506193005 41 9 4.3 8.7 0.00 0.00 0.00 54 1008.6
20260506191505 41 316 5.2 12.2 0.00 0.00 0.00 54 1008.6
20260506190005 41 299 5.2 12.2 0.00 0.00 0.00 53 1008.6
20260506184503 41 317 5.2 10.4 0.00 0.00 0.00 53 1008.6
20260506183005 41 299 3.5 7.8 0.00 0.00 0.00 54 1008.6
20260506181502 41 301 5.2 12.2 0.00 0.00 0.00 53 1008.7
20260506180001 41 307 3.5 10.4 0.00 0.00 0.00 52 1008.7
20260506174601 41 338 4.3 9.6 0.00 0.00 0.00 52 1008.7
20260506173134 40 281 5.2 12.2 0.00 0.00 0.00 53 1008.9
20260506171558 40 289 5.2 9.6 0.00 0.00 0.00 52 1009.0
20260506170057 40 277 3.5 7.0 0.00 0.00 0.00 54 1009.0
20260506164555 39 29 4.3 7.8 0.00 0.00 0.00 54 1009.0
20260506163058 39 9 5.2 10.4 0.00 0.00 0.00 55 1009.1
20260506161556 39 9 5.2 8.7 0.00 0.00 0.00 55 1009.0
20260506160052 39 46 5.2 8.7 0.00 0.00 0.00 56 1009.0
20260506154550 39 321 3.5 7.8 0.00 0.00 0.00 55 1009.0
20260506153048 39 348 5.2 8.7 0.00 0.00 0.00 56 1008.9
20260506151548 38 329 3.5 7.8 0.00 0.00 0.00 57 1008.9
20260506150051 38 32 3.5 7.8 0.00 0.00 0.00 58 1008.9
20260506144601 38 301 5.2 7.8 0.00 0.00 0.00 58 1009.0
20260506143047 37 40 1.7 7.0 0.00 0.00 0.00 59 1008.9
20260506141546 37 317 3.5 7.0 0.00 0.00 0.00 58 1009.0
20260506140045 37 296 3.5 7.0 0.00 0.00 0.00 58 1008.9
20260506134544 37 329 3.5 7.8 0.00 0.00 0.00 58 1008.7
20260506133046 37 332 4.3 7.8 0.00 0.00 0.00 59 1008.7
20260506131542 37 264 3.5 7.8 0.00 0.00 0.00 60 1008.6
20260506130041 36 292 3.5 6.1 0.00 0.00 0.00 64 1008.4
20260506124540 36 311 3.5 7.0 0.00 0.00 0.00 65 1008.2
20260506123037 35 316 1.7 5.2 0.00 0.00 0.00 68 1008.1
20260506121534 35 329 2.6 6.1 0.00 0.00 0.00 69 1007.8
20260506120033 34 306 3.5 5.2 0.00 0.00 0.00 71 1007.7
20260506114531 33 295 1.7 6.1 0.00 0.00 0.00 73 1007.4
20260506113031 33 295 0.9 5.2 0.00 0.00 0.00 72 1007.2
20260506111528 33 295 0.0 4.3 0.00 0.00 0.00 71 1007.0
20260506110029 33 292 1.7 6.1 0.00 0.00 0.00 70 1007.2
20260506104529 33 248 2.6 5.2 0.00 0.00 0.00 70 1007.3
20260506103027 33 319 3.5 7.0 0.00 0.00 0.00 69 1007.3
20260506101523 33 257 2.6 6.1 0.00 0.00 0.00 68 1007.0
20260506100020 34 273 1.7 6.1 0.00 0.00 0.00 67 1006.8
20260506094517 34 277 0.9 5.2 0.00 0.00 0.00 66 1006.9
20260506093016 34 328 1.7 4.3 0.00 0.00 0.00 65 1006.7
20260506091518 34 333 0.9 2.6 0.00 0.00 0.00 64 1006.8
20260506090021 34 355 0.9 3.5 0.00 0.00 0.00 64 1006.9
20260506084530 34 355 0.9 1.7 0.00 0.00 0.00 63 1006.5
20260506083010 34 355 0.0 3.5 0.00 0.00 0.00 63 1006.4
20260506081512 34 355 0.9 3.5 0.00 0.00 0.00 63 1006.4
20260506073005 35 360 0.9 5.2 0.00 0.00 0.00 61 1006.2
20260506071502 35 10 2.6 7.8 0.00 0.00 0.00 62 1006.0